User: anonymous   Login
Location: Mason
(37.5237°N, 89.2543°W)
Time: 07:38:36
(UTC+00:00)
Language:

CZ-2D R/B - Orbit

View from above orbital plane
View from above orbital plane
View from above satellite
View from above satellite

Ground track
Ground track

The orbit data is extracted from the following two-line orbital elements,

1 28738U 05024B   22149.03993432  .00003625  00000-0  20449-3 0  9998
2 28738  97.3510 157.8320 0009825 240.2442 119.7813 15.13733794928836
Epoch (UTC): 29 May 2022 00:57:30
Eccentricity: 0.0009825
inclination: 97.3510°
perigee height: 518 km
apogee height: 531 km
right ascension of ascending node: 157.8320°
argument of perigee: 240.2442°
revolutions per day: 15.13733794
mean anomaly at epoch: 119.7813°
orbit number at epoch: 92883

The dashed part of the orbit path shows where the satellite is in the earth's shadow,  

DLR